Regional Weather Roundup
Issued by NWS Wakefield, VA

Home | Current Version | Previous Version | Text Only | Print | Product List | Glossary Off
Versions: 1 2 3 4 5 6 7 8 9 10 11 12 13 14 15 16 17 18 19 20 21 22 23 24 25 26 27 28 29 30 31 32 33 34 35 36 37 38 39 40
000 ASUS41 KAKQ 032014 RWRAKQ REGIONAL WEATHER ROUNDUP NATIONAL WEATHER SERVICE WAKEFIELD VA 300 PM EST WED MAR 03 2021 Note: "fair" indicates few or no clouds below 12,000 feet with no significant weather and/or obstructions to visibility. * = Denotes station may not report precipitation (e.g., rain,snow,etc.), thunder or fog. VAZ042-051-052>054-056-032100- NORTHERN VIRGINIA CITY SKY/WX TMP DP RH WIND PRES REMARKS WASH NATIONAL SUNNY 60 19 20 VRB7G16 29.90F DULLES SUNNY 59 20 22 SW9 29.89F FORT BELVOIR SUNNY 59 18 20 W7 29.89F QUANTICO SUNNY 53 35 50 S13 29.91F FREDERICKSBRG* SUNNY 61 16 17 SW7 29.90F STAFFORD* SUNNY 60 32 34 W5 29.94F WARRENTON SUNNY 60 12 15 SW6 29.89F CULPEPER* SUNNY 62 12 14 S6 29.91F MANASSAS* SUNNY 58 19 22 VRB7 29.90F LEESBURG* SUNNY 57 23 26 NW5 29.89F WINCHESTER SUNNY 55 21 26 W8G16 29.86F FRONT ROYAL* FAIR 59 19 21 W13 29.87F LURAY* FAIR 59 18 20 W6 29.88F $$ VAZ048-049-060>072-079>083-032100- CENTRAL AND SOUTH CENTRAL VIRGINIA CITY SKY/WX TMP DP RH WIND PRES REMARKS RICHMOND SUNNY 58 23 26 SW7 29.91F CHESTERFIELD* NOT AVBL PETERSBURG* SUNNY 58 24 27 CALM 29.93F HANOVER SUNNY 59 15 18 SW3 29.92F TAPPAHANNOCK* SUNNY 58 20 22 SW3 29.92F QUINTON* FAIR 58 24 26 SW3 29.91F CHARLOTTSVILLE SUNNY 63 16 16 SW8 29.89F GORDONSVILLE* FAIR 61 19 19 SW7 29.89F ORANGE* SUNNY 59 18 20 S7 29.90F LOUISA* SUNNY 59 14 17 SW5 29.95S BUMPASS* NOT AVBL FARMVILLE* N/A 62 15 15 CALM 29.91F CREWE* NOT AVBL FORT PICKETT* FAIR 59 26 27 SW5 29.92F CHASE CITY* FAIR 60 23 23 CALM 29.92F CLARKSVILLE* FAIR 59 27 29 NW5 29.93F SOUTH HILL* SUNNY 57 23 26 CALM 29.99S LAWRENCEVILLE* FAIR 59 24 26 SW3 29.93F EMPORIA* SUNNY 59 26 28 S7 29.95F $$ VAZ088>098-032100- SOUTHEAST VIRGINIA CITY SKY/WX TMP DP RH WIND PRES REMARKS NORFOLK SUNNY 56 29 35 N7 29.91F VIRGINIA BEACH MOSUNNY 55 27 34 E5 29.92F NORFOLK NAVAL SUNNY 56 25 30 NW5 29.93F WEST POINT* SUNNY 56 25 29 CALM 29.92F SALUDA* FAIR 55 25 32 N5 29.92F NEWPORT NEWS SUNNY 56 26 31 W5 29.93F LANGLEY AFB SUNNY 57 28 32 NW8 29.91F FORT EUSTIS NOT AVBL WILLIAMSBURG* SUNNY 59 28 31 SW6 29.93F HR EXEC AP* FAIR 59 23 25 W5 29.93F FRANKLIN* SUNNY 57 22 25 CALM 29.93F US460-WAKEFLD SUNNY 60 25 26 W7 29.92F $$ VAZ020-022-025-037-045-032100- WEST CENTRAL AND SOUTHWEST VIRGINIA CITY SKY/WX TMP DP RH WIND PRES REMARKS STAUNTON* SUNNY 59 21 23 SW6 29.91F WAYNESBORO* FAIR 57 18 21 SW7 29.90F HOT SPRINGS VA SUNNY 49 11 21 W13 29.91F LYNCHBURG SUNNY 61 19 19 W3 29.93F DANVILLE SUNNY 63 18 17 NW8 29.93F SOUTH BOSTON* FAIR 62 15 15 W6 29.93F MARTINSVILLE SUNNY 63 14 15 N6 29.96F ROANOKE SUNNY 62 17 17 NW12 29.94F BLACKSBURG SUNNY 56 19 24 NW10 29.98S DUBLIN* SUNNY 57 21 24 W7 29.96F MARION* SUNNY 56 17 21 W13G23 29.99F HILLSVILLE* SUNNY 55 10 16 W10 29.94F RICHLANDS* FAIR 52 19 27 NW6 29.99F WISE* SUNNY 52 18 25 W7 30.01F ABINGDON* SUNNY 56 6 13 W12 30.00F $$ MDZ021>025-VAZ099-100-032100- SOUTHERN MARYLAND AND THE DELMARVA PENINSULA CITY SKY/WX TMP DP RH WIND PRES REMARKS PATUXENT RIVER SUNNY 52 34 50 E7 29.90F BAY BRIDGE APT SUNNY 55 21 26 S6 29.90F LEONARDTOWN SUNNY 54 19 26 W7 29.92F DOVER SUNNY 55 22 28 W13 29.88F GEORGETOWN SUNNY 56 18 22 W9 29.89F EASTON SUNNY 55 16 21 SW7 29.94F CAMBRIDGE SUNNY 55 19 24 VRB6G13 29.90F SALISBURY SUNNY 54 20 26 W10 29.90F TANGIER NOT AVBL OCEAN CITY SUNNY 54 25 32 W8 29.90F WALLOPS ISLAND SUNNY 53 28 38 W8 29.92F ACCOMACK* SUNNY 52 21 30 NW7 29.92F $$ NCZ012>017-030>032-032100- NORTH CENTRAL AND EASTERN NORTH CAROLINA CITY SKY/WX TMP DP RH WIND PRES REMARKS ROANOKE RAPIDS FAIR 55 32 41 S3 29.93F RALEIGH SUNNY 61 29 29 E5 29.94F ELIZABETH CITY SUNNY 58 35 42 S6 29.93F AHOSKIE* SUNNY 58 19 21 SW3 29.93F EDENTON* SUNNY 58 40 51 CALM 29.94F CURRITUCK* SUNNY 52 32 45 E6 29.93F KILL DEVIL HLS SUNNY 48 27 43 NE6 29.93F MANTEO SUNNY 51 24 35 NE8 29.95S CAPE HATTERAS SUNNY 54 44 69 NE13G18 29.91F TARBORO* FAIR 59 32 36 NW5 29.93F GOLDSBORO SUNNY 60 40 47 S3 29.91F WASHINGTON PTSUNNY 62 38 41 NW5 29.93S GREENVILLE SUNNY 59 37 44 E3 29.95S NEW BERN CLOUDY 58 40 51 N5 29.92F WILMINGTON PTSUNNY 61 44 53 N9 29.91S $$ VAZ048-032100- ELSEWHERE CITY SKY/WX TMP DP RH WIND PRES REMARKS HARRISBURG PA SUNNY 55 23 28 W12G17 29.84F BALTIMORE SUNNY 58 21 24 W12 29.87F ANNAPOLIS SUNNY 56 23 27 W7 29.89F ANDREWS AFB SUNNY 57 18 22 W8 29.88F PHILADELPHIA SUNNY 54 23 30 SW9 29.86F HENDERSON NC SUNNY 58 21 24 S6 29.93F GREENSBORO SUNNY 60 16 18 VRB3 29.93F ROCKY MOUNT SUNNY 59 23 25 CALM 29.94F $$ VAZ100-032100- MARINE STATION/POSITION TIME TEMP WIND PRES WAVE SWELL AIR SEA DIR/SP/G HT/PER HT/PER (UTC) (F) (DEG/KT/KT) (MB) (FT/S) (FT/S) $$

USA.gov is the U.S. government's official web portal to all federal, state and local government web resources and services.